Weather History for KEUG - December, 2012

Change the Weather History Date:

Sunday, December 16, 2012

  Actual Average Record
Temperature  
Mean Temperature 46 °F 39 °F  
Max Temperature 52 °F 45 °F 61 °F (1974)
Min Temperature 39 °F 34 °F 10 °F (2008)
Degree Days  
Heating Degree Days 19 26  
Month to date heating degree days 328 397  
Since 1 July heating degree days 1255 1570  
Cooling Degree Days 0 0  
Month to date cooling degree days 0 0  
Year to date cooling degree days 230 239  
Moisture  
Dew Point 41 °F    
Average Humidity 86    
Maximum Humidity 100    
Minimum Humidity 71    
Precipitation  
Precipitation 0.79 in 0.25 in 1.58 in (1977)
Month to date precipitation 3.94 4.32  
Year to date precipitation 46.69 42.59  
Snow  
Snow 0.00 in - - ()
Month to date snowfall 0.0  
Since 1 July snowfall 0.0  
Snow Depth 0.00 in    
Sea Level Pressure  
Sea Level Pressure 29.64 in    
Wind  
Wind Speed 16 mph (South)    
Max Wind Speed 37 mph    
Max Gust Speed 48 mph    
Visibility 8 miles    
Events Rain    
T = Trace of Precipitation, MM = Missing Value Source: NWS Daily Summary

Daily Weather History Graph

Daily Weather History Graph

Search for Another Location

Airport or City:

Trip Planner

Search our weather history database for the weather conditions in past years. The results will help you decide how hot, cold, wet, or windy it might be!

Date:

Astronomy

Dec. 16, 2012 Rise Set
Actual Time 7:42 AM PST 4:35 PM PST
Civil Twilight 7:09 AM PST 5:08 PM PST
Nautical Twilight 6:32 AM PST 5:45 PM PST
Astronomical Twilight 5:57 AM PST 6:20 PM PST
Moon 10:12 AM PST (12/16) 9:03 PM PST (12/16)
Length of Visible Light 9h 59m
Length of Day
8h 53m
Waxing Crescent, 17% of the Moon is Illuminated
Dec 16
Waxing Crescent
Dec 19
First Quarter
Dec 28
Full
Jan 4
Last Quarter
Jan 11
New

Hourly Weather History & Observations

Time (PST) Temp. Windchill Dew Point Humidity Pressure Visibility Wind Dir Wind Speed Gust Speed Precip Events Conditions
12:27 AM 39.2 °F 35.9 °F 37.4 °F 93% 29.89 in 10.0 mi SE 4.6 mph - N/A   Scattered Clouds
12:54 AM 39.9 °F 36.7 °F 39.0 °F 97% 29.90 in 10.0 mi South 4.6 mph - N/A   Overcast
1:54 AM 39.9 °F 34.5 °F 37.9 °F 93% 29.89 in 10.0 mi South 8.1 mph - N/A   Clear
2:54 AM 41.0 °F 35.2 °F 39.0 °F 93% 29.90 in 10.0 mi South 9.2 mph - N/A   Overcast
3:54 AM 41.0 °F 36.4 °F 39.0 °F 93% 29.89 in 10.0 mi South 6.9 mph - N/A   Overcast
4:54 AM 41.0 °F 36.4 °F 39.0 °F 93% 29.88 in 10.0 mi South 6.9 mph - N/A   Overcast
5:54 AM 42.1 °F 36.6 °F 39.9 °F 92% 29.88 in 10.0 mi South 9.2 mph - 0.02 in Rain Light Rain
6:54 AM 41.0 °F 38.0 °F 39.9 °F 96% 29.87 in 10.0 mi South 4.6 mph - 0.01 in Rain Light Rain
7:05 AM 41.0 °F 37.1 °F 39.2 °F 93% 29.86 in 10.0 mi SSE 5.8 mph - 0.00 in Rain Light Rain
7:54 AM 42.1 °F 36.1 °F 39.0 °F 89% 29.85 in 7.0 mi South 10.4 mph - 0.01 in   Overcast
8:29 AM 42.8 °F 36.6 °F 39.2 °F 87% 29.84 in 10.0 mi South 11.5 mph - N/A   Overcast
8:54 AM 42.1 °F 35.7 °F 39.9 °F 92% 29.84 in 6.0 mi South 11.5 mph - 0.00 in Rain Light Rain
9:54 AM 43.0 °F 37.2 °F 39.9 °F 89% 29.82 in 7.0 mi South 10.4 mph - 0.01 in   Overcast
10:54 AM 44.1 °F 36.5 °F 39.9 °F 85% 29.78 in 9.0 mi South 17.3 mph - 0.01 in   Overcast
11:54 AM 43.0 °F 35.4 °F 39.9 °F 89% 29.73 in 9.0 mi South 16.1 mph 21.9 mph 0.01 in Rain Light Rain
12:22 PM 44.6 °F 37.2 °F 39.2 °F 81% 29.70 in 9.0 mi South 17.3 mph 21.9 mph 0.01 in Rain Light Rain
12:54 PM 44.1 °F 36.8 °F 39.9 °F 85% 29.66 in 5.0 mi South 16.1 mph 23.0 mph 0.01 in Rain Light Rain
1:54 PM 45.0 °F 37.4 °F 41.0 °F 86% 29.58 in 7.0 mi South 18.4 mph - 0.00 in   Overcast
2:54 PM 46.9 °F - 42.1 °F 83% 29.49 in 10.0 mi South 23.0 mph 32.2 mph 0.01 in   Overcast
3:54 PM 48.0 °F - 42.1 °F 80% 29.43 in 10.0 mi South 21.9 mph 31.1 mph N/A   Mostly Cloudy
4:54 PM 48.0 °F - 43.0 °F 83% 29.37 in 8.0 mi South 29.9 mph 38.0 mph 0.00 in Rain Light Rain
5:54 PM 48.0 °F - 45.0 °F 89% 29.34 in 6.0 mi SSW 21.9 mph 35.7 mph 0.05 in Rain Light Rain
6:54 PM 48.9 °F - 46.0 °F 90% 29.32 in 8.0 mi South 20.7 mph 28.8 mph 0.17 in Rain Light Rain
7:14 PM 48.2 °F - 46.4 °F 93% 29.31 in 5.0 mi South 16.1 mph - 0.03 in Rain Rain
7:54 PM 50.0 °F - 48.0 °F 93% 29.34 in 3.0 mi SSW 18.4 mph 29.9 mph 0.33 in Rain Heavy Rain
8:34 PM 51.8 °F - 46.4 °F 82% 29.32 in 10.0 mi WSW 21.9 mph 33.4 mph 0.07 in   Overcast
8:54 PM 52.0 °F - 44.1 °F 74% 29.34 in 10.0 mi WSW 27.6 mph 43.7 mph 0.07 in   Mostly Cloudy
9:54 PM 52.0 °F - 42.1 °F 69% 29.34 in 10.0 mi SW 29.9 mph 40.3 mph N/A   Mostly Cloudy
10:54 PM 50.0 °F - 44.1 °F 80% 29.36 in 10.0 mi SW 20.7 mph 34.5 mph N/A   Mostly Cloudy
11:54 PM 48.9 °F - 45.0 °F 86% 29.42 in 4.0 mi WSW 23.0 mph 33.4 mph 0.06 in Rain Light Rain